Regional Weather Roundup
Issued by NWS

Home | Current Version | Previous Version | Text Only | Print | Product List | Glossary Off
Versions: 1 2 3 4 5 6 7 8 9 10 11 12 13 14 15 16 17 18 19 20 21 22 23 24 25 26 27 28 29 30 31 32 33 34 35 36 37 38 39 40 41 42 43 44 45 46 47 48 49 50

000
ASUS43 KLOT 210100
RWRIL

ILLINOIS REGIONAL WEATHER ROUNDUP
NATIONAL WEATHER SERVICE CHICAGO/ROMEOVILLE IL
700 PM CST THU NOV 20 2014

NOTE: "FAIR" INDICATES FEW OR NO CLOUDS BELOW 12,000 FEET WITH NO
SIGNIFICANT WEATHER AND/OR OBSTRUCTIONS TO VISIBILITY.

* THESE STATIONS ARE NOT UNDER NWS QUALITY CONTROL. THEY ALSO MAY NOT
  REPORT WEATHER SUCH AS PRECIPITATION OR FOG.

ILZ001-002-007-009-015-016-024-210200-
NORTHWEST ILLINOIS

CITY           SKY/WX    TMP DP  RH WIND       PRES   REMARKS
MOLINE         CLEAR     21   8  57 NW6       30.25R WCI  13
STERLING*      CLEAR     18   5  57 NW7       30.23R WCI   8
$$

ILZ003-004-008-010-011-017-018-210200-
NORTH CENTRAL ILLINOIS

CITY           SKY/WX    TMP DP  RH WIND       PRES   REMARKS
ROCKFORD       CLEAR     18   3  52 NW12      30.23R WCI   5
FREEPORT*      CLEAR     15   5  64 W3        30.23R
$$

ILZ005-006-012>014-019>023-210200-
NORTHEAST ILLINOIS

CITY           SKY/WX    TMP DP  RH WIND       PRES   REMARKS
CHICAGO-OHARE  CLEAR     20   3  48 W12       30.18R WCI   8
CHICAGO-MIDWAY CLEAR     24   3  40 NW13G22   30.20R WCI  12
AURORA         CLEAR     18   5  57 W12       30.20R WCI   5
LANSING*       CLEAR     23   4  45 W8        30.19R WCI  13
WAUKEGAN       NOT AVBL
DUPAGE AIRPORT CLEAR     19   3  49 W9        30.19R WCI   8
WHEELING       CLEAR     21   4  47 W16       30.20R WCI   7
NORTHERLY ISL    N/A     24   3  40 W14         N/A  WCI  12
$$

LMZ740>746-210200-
SOUTHERN LAKE MICHIGAN

STATION/POSITION SKY/WX   TEMP    WIND        PRES    VSBY  WAVE
                          AIR SEA DIR/SP/G                  HT/PER
                          (F)     (DEG/KT/KT) (MB)    (MI)  (FT/S)
SOUTHERN BUOY              26 43  290/ 21/ 31 1020.5R         6/ 6
WAUKEGAN HARBOR            22     280/ 14/ 19   N/A
HARRISON CRIB              24     280/ 25/ 31   N/A
BURNHAM HARBOR             24     300/ 13/ 19   N/A
CALUMET HARBOR             24     270/ 10/ 18 1020.6R
MICHIGAN CITY              27     260/ 27/ 34   N/A
$$

ILZ025>027-034>036-040-047-049-050-058-095>099-210200-
WEST-CENTRAL ILLINOIS

CITY           SKY/WX    TMP DP  RH WIND       PRES   REMARKS
QUINCY         CLEAR     24  10  55 N7        30.25R WCI  16
MACOMB*        CLEAR     21  10  63 NW7       30.28R WCI  12
$$

ILZ028>032-037-038-041>044-048-051>054-059>061-210200-
CENTRAL ILLINOIS

CITY           SKY/WX    TMP DP  RH WIND       PRES   REMARKS
DECATUR        CLEAR     27  12  53 W7        30.24R WCI  19
PEORIA         CLEAR     25   9  50 NW5       30.26R WCI  19
LINCOLN*       FAIR      26  12  55 NW3       30.26R
SPRINGFIELD    CLEAR     26  10  50 W5        30.26R WCI  20
TAYLORVILLE    NOT AVBL
$$

ILZ033-039-045-046-055>057-062-063-210200-
EAST-CENTRAL ILLINOIS

CITY           SKY/WX    TMP DP  RH WIND       PRES   REMARKS
CHAMPAIGN      CLEAR     21  11  65 W6        30.23R WCI  13
MATTOON        CLEAR     26  17  68 SW6       30.23R WCI  19
$$

ILZ079-100>102-210200-
SOUTHWEST ILLINOIS

CITY           SKY/WX    TMP DP  RH WIND       PRES   REMARKS
BELLEVILLE     CLEAR     27  20  75 CALM      30.26R
CAHOKIA*       CLEAR     31  19  61 CALM      30.26R
$$

ILZ064>066-069>071-074>076-080>082-084>086-088>090-092>094-210200-
SOUTH-CENTRAL ILLINOIS

CITY           SKY/WX    TMP DP  RH WIND       PRES   REMARKS
CARBONDALE     CLEAR     30  17  58 NE3       30.26R
MT. VERNON     CLEAR     25  16  68 N3        30.26R
$$

ILZ067-068-072-073-078-083-087-091-210200-
SOUTHEAST ILLINOIS

CITY           SKY/WX    TMP DP  RH WIND       PRES   REMARKS
LAWRENCEVILLE  CLEAR     24  16  71 W3        30.27R
$$

ABBREVIATIONS USED IN REMARKS
   TC - TEMPERATURE IN CELSIUS
  WCI - WIND CHILL INDEX
   HX - HEAT INDEX
  VSB - VISIBILITY
$$



USA.gov is the U.S. government's official web portal to all federal, state and local government web resources and services.